Time,TemperatureF,DewpointF,PressureIn,WindDirection,WindDirectionDegrees,WindSpeedMPH,WindSpeedGustMPH,Humidity,HourlyPrecipIn,Conditions,Clouds,dailyrainin,SoftwareType,DateUTC
2013-06-19 00:00:00,61.5,61.5,29.93,ENE,68,0.0,0.0,100,0.00,SCT,,0.09,WeatherDisplay:10.37,2013-06-19 04:00:00,
2013-06-19 00:01:00,61.5,61.5,29.93,ENE,68,0.0,0.0,100,0.00,RA,,0.00,WeatherDisplay:10.37,2013-06-19 04:01:00,
2013-06-19 00:02:00,61.5,61.5,29.93,ENE,68,0.0,0.0,100,0.00,RA,,0.00,WeatherDisplay:10.37,2013-06-19 04:02:00,
2013-06-19 00:03:00,61.5,61.5,29.93,ENE,68,0.0,0.0,100,0.00,RA,,0.00,WeatherDisplay:10.37,2013-06-19 04:03:00,
2013-06-19 00:05:00,61.9,61.9,29.94,ENE,68,3.1,4.6,100,0.00,RA,,0.00,WeatherDisplay:10.37,2013-06-19 04:05:00,
2013-06-19 00:06:00,61.9,61.9,29.94,ENE,68,3.2,4.6,100,0.00,RA,,0.00,WeatherDisplay:10.37,2013-06-19 04:06:00,
2013-06-19 00:11:00,62.1,62.1,29.94,ENE,68,0.5,2.7,100,0.00,RA,,0.00,WeatherDisplay:10.37,2013-06-19 04:11:00,
2013-06-19 00:16:00,62.1,62.1,29.94,ENE,68,2.4,2.7,100,0.00,SCT,,0.00,WeatherDisplay:10.37,2013-06-19 04:16:00,
2013-06-19 00:21:00,62.1,62.1,29.94,ENE,68,0.6,2.3,100,0.00,SCT,,0.00,WeatherDisplay:10.37,2013-06-19 04:21:00,
2013-06-19 00:26:00,61.9,61.9,29.94,ENE,68,0.0,0.0,100,0.00,SCT,,0.00,WeatherDisplay:10.37,2013-06-19 04:26:00,
2013-06-19 00:31:00,61.9,61.9,29.94,ENE,68,0.0,0.0,100,0.00,SCT,,0.00,WeatherDisplay:10.37,2013-06-19 04:31:00,
2013-06-19 00:36:00,61.9,61.9,29.94,ENE,68,0.0,0.0,100,0.00,SCT,,0.00,WeatherDisplay:10.37,2013-06-19 04:36:00,
2013-06-19 00:41:00,61.9,61.9,29.95,ENE,68,0.0,0.0,100,0.00,SCT,,0.00,WeatherDisplay:10.37,2013-06-19 04:41:00,
2013-06-19 00:46:00,62.1,62.1,29.95,ENE,68,0.0,0.0,100,0.00,SCT,,0.00,WeatherDisplay:10.37,2013-06-19 04:46:00,
2013-06-19 00:51:00,62.1,62.1,29.95,ENE,68,0.0,0.0,100,0.00,SCT,,0.00,WeatherDisplay:10.37,2013-06-19 04:51:00,
2013-06-19 00:56:00,62.1,62.1,29.95,ENE,68,2.8,4.6,100,0.00,SCT,,0.00,WeatherDisplay:10.37,2013-06-19 04:56:00,
2013-06-19 01:01:00,62.1,62.1,29.95,ENE,68,1.3,3.5,100,0.00,SCT,,0.00,WeatherDisplay:10.37,2013-06-19 05:01:00,
2013-06-19 01:06:00,62.1,62.1,29.95,ENE,68,0.0,0.0,100,0.00,SCT,,0.00,WeatherDisplay:10.37,2013-06-19 05:06:00,
2013-06-19 01:11:00,62.1,62.1,29.95,ENE,68,0.0,0.0,100,0.00,SCT,,0.00,WeatherDisplay:10.37,2013-06-19 05:11:00,
2013-06-19 01:16:00,61.9,61.9,29.95,ENE,68,0.0,0.0,100,0.00,SCT,,0.00,WeatherDisplay:10.37,2013-06-19 05:16:00,
2013-06-19 01:21:00,61.7,61.7,29.95,ENE,68,0.0,0.0,100,0.00,SCT,,0.00,WeatherDisplay:10.37,2013-06-19 05:21:00,
2013-06-19 01:26:00,61.7,61.7,29.95,ENE,68,0.0,0.0,100,0.00,SCT,,0.00,WeatherDisplay:10.37,2013-06-19 05:26:00,
2013-06-19 01:31:00,61.5,61.5,29.95,ENE,68,0.0,0.0,100,0.00,SCT,,0.00,WeatherDisplay:10.37,2013-06-19 05:31:00,
2013-06-19 01:36:00,61.5,61.5,29.95,ENE,68,0.0,0.0,100,0.00,SCT,,0.00,WeatherDisplay:10.37,2013-06-19 05:36:00,
2013-06-19 01:41:00,61.3,61.3,29.95,ENE,68,0.6,3.6,100,0.00,SCT,,0.00,WeatherDisplay:10.37,2013-06-19 05:41:00,
2013-06-19 01:46:00,61.2,61.2,29.95,ENE,68,0.0,0.0,100,0.00,SCT,,0.00,WeatherDisplay:10.37,2013-06-19 05:46:00,
2013-06-19 01:51:00,61.2,61.2,29.95,ENE,68,0.0,0.0,100,0.00,SCT,,0.00,WeatherDisplay:10.37,2013-06-19 05:51:00,
2013-06-19 01:56:00,61.2,61.2,29.95,ENE,68,2.1,4.6,100,0.00,SCT,,0.00,WeatherDisplay:10.37,2013-06-19 05:56:00,
2013-06-19 02:01:00,61.2,61.2,29.95,ENE,68,0.7,3.6,100,0.00,SCT,,0.00,WeatherDisplay:10.37,2013-06-19 06:01:00,
2013-06-19 02:06:00,61.0,60.7,29.95,North,360,0.0,2.3,99,0.00,SCT,,0.00,WeatherDisplay:10.37,2013-06-19 06:06:00,
2013-06-19 02:11:00,61.0,60.7,29.95,East,90,2.5,3.6,99,0.00,SCT,,0.00,WeatherDisplay:10.37,2013-06-19 06:11:00,
2013-06-19 02:16:00,61.0,60.7,29.96,ENE,68,0.0,0.0,99,0.00,SCT,,0.00,WeatherDisplay:10.37,2013-06-19 06:16:00,
2013-06-19 02:21:00,61.0,60.7,29.96,ENE,68,1.4,3.6,99,0.00,SCT,,0.00,WeatherDisplay:10.37,2013-06-19 06:21:00,
2013-06-19 02:26:00,61.0,60.7,29.96,NNE,22,2.7,3.5,99,0.00,SCT,,0.00,WeatherDisplay:10.37,2013-06-19 06:26:00,
2013-06-19 02:31:00,61.0,60.4,29.95,NNE,22,0.0,2.3,98,0.00,SCT,,0.00,WeatherDisplay:10.37,2013-06-19 06:31:00,
2013-06-19 02:36:00,61.0,60.4,29.95,NNE,22,0.0,0.0,98,0.00,SCT,,0.00,WeatherDisplay:10.37,2013-06-19 06:36:00,
2013-06-19 02:41:00,61.0,60.4,29.96,NNE,22,0.0,0.0,98,0.00,SCT,,0.00,WeatherDisplay:10.37,2013-06-19 06:41:00,
2013-06-19 02:46:00,61.0,60.4,29.96,NNE,22,0.0,0.0,98,0.00,SCT,,0.00,WeatherDisplay:10.37,2013-06-19 06:46:00,
2013-06-19 02:51:00,61.0,60.4,29.96,NNE,22,3.8,5.8,98,0.00,SCT,,0.00,WeatherDisplay:10.37,2013-06-19 06:51:00,
2013-06-19 02:56:00,61.0,60.1,29.96,NNE,22,4.7,6.1,97,0.00,SCT,,0.00,WeatherDisplay:10.37,2013-06-19 06:56:00,
2013-06-19 03:01:00,61.0,60.1,29.96,ENE,68,3.1,4.6,97,0.00,SCT,,0.00,WeatherDisplay:10.37,2013-06-19 07:01:00,
2013-06-19 03:06:00,60.8,59.9,29.96,NNE,22,3.6,4.6,97,0.00,SCT,,0.00,WeatherDisplay:10.37,2013-06-19 07:06:00,
2013-06-19 03:11:00,60.8,59.7,29.96,NE,45,3.9,5.8,96,0.00,SCT,,0.00,WeatherDisplay:10.37,2013-06-19 07:11:00,
2013-06-19 03:16:00,60.6,59.5,29.96,ENE,68,2.7,4.6,96,0.00,SCT,,0.00,WeatherDisplay:10.37,2013-06-19 07:16:00,
2013-06-19 03:21:00,60.3,59.4,29.96,ENE,68,0.0,0.0,97,0.00,SCT,,0.00,WeatherDisplay:10.37,2013-06-19 07:21:00,
2013-06-19 03:26:00,60.3,59.4,29.96,ENE,68,0.0,0.0,97,0.00,SCT,,0.00,WeatherDisplay:10.37,2013-06-19 07:26:00,
2013-06-19 03:31:00,60.1,59.2,29.96,ENE,68,0.0,0.0,97,0.00,SCT,,0.00,WeatherDisplay:10.37,2013-06-19 07:31:00,
2013-06-19 03:36:00,59.9,59.0,29.96,NNW,338,2.4,4.6,97,0.00,SCT,,0.00,WeatherDisplay:10.37,2013-06-19 07:36:00,
2013-06-19 03:41:00,59.9,59.0,29.96,NNW,338,0.0,0.0,97,0.00,SCT,,0.00,WeatherDisplay:10.37,2013-06-19 07:41:00,
2013-06-19 03:46:00,59.5,58.6,29.96,NNW,338,0.0,0.0,97,0.00,SCT,,0.00,WeatherDisplay:10.37,2013-06-19 07:46:00,
2013-06-19 03:51:00,59.5,58.9,29.96,NNW,338,0.0,0.0,98,0.00,SCT,,0.00,WeatherDisplay:10.37,2013-06-19 07:51:00,
2013-06-19 03:56:00,59.2,58.6,29.96,NNW,338,0.0,0.0,98,0.00,SCT,,0.00,WeatherDisplay:10.37,2013-06-19 07:56:00,
2013-06-19 04:01:00,59.0,58.4,29.96,North,360,1.2,2.7,98,0.00,SCT,,0.00,WeatherDisplay:10.37,2013-06-19 08:01:00,
2013-06-19 04:06:00,59.0,58.7,29.96,NE,45,4.0,5.8,99,0.00,SCT,,0.00,WeatherDisplay:10.37,2013-06-19 08:06:00,
2013-06-19 04:11:00,59.0,58.7,29.96,NE,45,1.1,3.5,99,0.00,SCT,,0.00,WeatherDisplay:10.37,2013-06-19 08:11:00,
2013-06-19 04:16:00,59.0,58.7,29.97,NE,45,4.7,6.1,99,0.00,SCT,,0.00,WeatherDisplay:10.37,2013-06-19 08:16:00,
2013-06-19 04:21:00,59.2,58.9,29.97,NNE,22,2.9,5.8,99,0.00,SCT,,0.00,WeatherDisplay:10.37,2013-06-19 08:21:00,
2013-06-19 04:26:00,59.2,58.9,29.97,ENE,68,4.5,5.8,99,0.00,SCT,,0.00,WeatherDisplay:10.37,2013-06-19 08:26:00,
2013-06-19 04:31:00,59.2,58.9,29.97,NE,45,3.9,5.8,99,0.00,SCT,,0.00,WeatherDisplay:10.37,2013-06-19 08:31:00,
2013-06-19 04:36:00,59.4,58.8,29.97,NE,45,5.0,8.1,98,0.00,SCT,,0.00,WeatherDisplay:10.37,2013-06-19 08:36:00,
2013-06-19 04:41:00,59.4,58.5,29.97,ENE,68,6.1,8.7,97,0.00,SCT,,0.00,WeatherDisplay:10.37,2013-06-19 08:41:00,
2013-06-19 04:46:00,59.5,58.4,29.97,NE,45,6.3,8.1,96,0.00,SCT,,0.00,WeatherDisplay:10.37,2013-06-19 08:46:00,
2013-06-19 04:51:00,59.5,58.4,29.97,NE,45,6.3,7.0,96,0.00,SCT,,0.00,WeatherDisplay:10.37,2013-06-19 08:51:00,
2013-06-19 04:56:00,59.5,57.8,29.97,ENE,68,6.9,9.2,94,0.00,SCT,,0.00,WeatherDisplay:10.37,2013-06-19 08:56:00,
2013-06-19 05:01:00,59.5,57.8,29.97,ENE,68,8.6,9.5,94,0.00,SCT,,0.00,WeatherDisplay:10.37,2013-06-19 09:01:00,
2013-06-19 05:06:00,59.5,57.8,29.98,ENE,68,6.2,9.2,94,0.00,SCT,,0.00,WeatherDisplay:10.37,2013-06-19 09:06:00,
2013-06-19 05:11:00,59.4,57.7,29.98,NE,45,3.2,8.1,94,0.00,SCT,,0.00,WeatherDisplay:10.37,2013-06-19 09:11:00,
2013-06-19 05:16:00,59.2,57.5,29.98,ENE,68,3.7,5.8,94,0.00,SCT,,0.00,WeatherDisplay:10.37,2013-06-19 09:16:00,
2013-06-19 05:21:00,58.8,57.1,29.98,NE,45,5.2,6.1,94,0.00,SCT,,0.00,WeatherDisplay:10.37,2013-06-19 09:21:00,
2013-06-19 05:26:00,58.6,56.9,29.99,ENE,68,7.0,8.1,94,0.00,SCT,,0.00,WeatherDisplay:10.37,2013-06-19 09:26:00,
2013-06-19 05:31:00,58.6,56.6,29.99,ENE,68,6.4,8.7,93,0.00,SCT,,0.00,WeatherDisplay:10.37,2013-06-19 09:31:00,
2013-06-19 05:36:00,58.6,56.6,29.99,ENE,68,2.7,5.8,93,0.00,SCT,,0.00,WeatherDisplay:10.37,2013-06-19 09:36:00,
2013-06-19 05:41:00,58.5,56.5,29.99,ENE,68,3.5,4.4,93,0.00,SCT,,0.00,WeatherDisplay:10.37,2013-06-19 09:41:00,
2013-06-19 05:46:00,58.5,56.2,29.99,North,360,5.5,8.7,92,0.00,SCT,,0.00,WeatherDisplay:10.37,2013-06-19 09:46:00,
2013-06-19 05:51:00,58.5,55.9,29.99,NE,45,8.1,9.2,91,0.00,SCT,,0.00,WeatherDisplay:10.37,2013-06-19 09:51:00,
2013-06-19 05:56:00,58.5,55.6,29.99,NE,45,7.1,8.1,90,0.00,SCT,,0.00,WeatherDisplay:10.37,2013-06-19 09:56:00,
2013-06-19 06:01:00,58.6,55.4,29.99,NE,45,7.6,11.5,89,0.00,SCT,,0.00,WeatherDisplay:10.37,2013-06-19 10:01:00,
2013-06-19 06:06:00,58.6,55.1,30.00,NNE,22,8.6,9.5,88,0.00,SCT,,0.00,WeatherDisplay:10.37,2013-06-19 10:06:00,
2013-06-19 06:11:00,58.6,55.1,30.00,ENE,68,6.2,8.1,88,0.00,SCT,,0.00,WeatherDisplay:10.37,2013-06-19 10:11:00,
2013-06-19 06:16:00,58.6,54.7,30.01,NE,45,6.7,10.4,87,0.00,SCT,,0.00,WeatherDisplay:10.37,2013-06-19 10:16:00,
2013-06-19 06:21:00,58.5,54.3,30.01,ENE,68,3.8,5.8,86,0.00,SCT,,0.00,WeatherDisplay:10.37,2013-06-19 10:21:00,
2013-06-19 06:26:00,58.5,54.3,30.01,NNE,22,2.1,2.7,86,0.00,SCT,,0.00,WeatherDisplay:10.37,2013-06-19 10:26:00,
2013-06-19 06:31:00,58.5,54.0,30.01,ENE,68,5.5,6.1,85,0.00,BKN,,0.00,WeatherDisplay:10.37,2013-06-19 10:31:00,
2013-06-19 06:36:00,58.5,54.3,30.01,NNW,338,4.6,8.1,86,0.00,BKN,,0.00,WeatherDisplay:10.37,2013-06-19 10:36:00,
2013-06-19 06:41:00,58.5,54.3,30.01,NNE,22,0.0,2.3,86,0.00,BKN,,0.00,WeatherDisplay:10.37,2013-06-19 10:41:00,
2013-06-19 06:46:00,58.3,53.5,30.01,NE,45,5.8,8.1,84,0.00,BKN,,0.00,WeatherDisplay:10.37,2013-06-19 10:46:00,
2013-06-19 06:51:00,58.5,53.7,30.02,ENE,68,6.1,6.1,84,0.00,BKN,,0.00,WeatherDisplay:10.37,2013-06-19 10:51:00,
2013-06-19 06:56:00,58.6,53.1,30.02,NE,45,7.6,9.2,82,0.00,BKN,,0.00,WeatherDisplay:10.37,2013-06-19 10:56:00,
2013-06-19 07:01:00,59.0,52.8,30.02,ENE,68,5.9,6.9,80,0.00,FEW,,0.00,WeatherDisplay:10.37,2013-06-19 11:01:00,
2013-06-19 07:06:00,59.2,52.7,30.02,ENE,68,7.2,10.4,79,0.00,FEW,,0.00,WeatherDisplay:10.37,2013-06-19 11:06:00,
2013-06-19 07:11:00,59.2,52.7,30.02,NNE,22,4.4,4.6,79,0.00,FEW,,0.00,WeatherDisplay:10.37,2013-06-19 11:11:00,
2013-06-19 07:16:00,59.5,52.6,30.02,WNW,292,4.2,5.8,78,0.00,FEW,,0.00,WeatherDisplay:10.37,2013-06-19 11:16:00,
2013-06-19 07:21:00,59.5,52.6,30.02,NE,45,8.7,9.5,78,0.00,FEW,,0.00,WeatherDisplay:10.37,2013-06-19 11:21:00,
2013-06-19 07:26:00,59.9,52.7,30.02,ENE,68,6.2,7.8,77,0.00,FEW,,0.00,WeatherDisplay:10.37,2013-06-19 11:26:00,
2013-06-19 07:31:00,60.1,52.9,30.03,East,90,5.4,10.4,77,0.00,FEW,,0.00,WeatherDisplay:10.37,2013-06-19 11:31:00,
2013-06-19 07:36:00,61.0,53.0,30.03,NNE,22,5.7,7.0,75,0.00,FEW,,0.00,WeatherDisplay:10.37,2013-06-19 11:36:00,
2013-06-19 07:41:00,62.4,53.6,30.03,ENE,68,7.1,9.2,73,0.00,FEW,,0.00,WeatherDisplay:10.37,2013-06-19 11:41:00,
2013-06-19 07:46:00,63.0,53.8,30.03,ENE,68,5.7,10.4,72,0.00,FEW,,0.00,WeatherDisplay:10.37,2013-06-19 11:46:00,
2013-06-19 07:51:00,63.3,53.7,30.04,NE,45,7.2,9.2,71,0.00,FEW,,0.00,WeatherDisplay:10.37,2013-06-19 11:51:00,
2013-06-19 07:56:00,64.0,53.6,30.04,NNE,22,4.7,8.1,69,0.00,FEW,,0.00,WeatherDisplay:10.37,2013-06-19 11:56:00,
2013-06-19 08:01:00,64.2,53.4,30.04,NE,45,6.8,10.4,68,0.00,SKC,,0.00,WeatherDisplay:10.37,2013-06-19 12:01:00,
2013-06-19 08:06:00,64.8,53.6,30.04,ENE,68,5.0,8.1,67,0.00,SKC,,0.00,WeatherDisplay:10.37,2013-06-19 12:06:00,
2013-06-19 08:11:00,65.7,54.0,30.04,NNE,22,6.5,9.5,66,0.00,SKC,,0.00,WeatherDisplay:10.37,2013-06-19 12:11:00,
2013-06-19 08:16:00,66.0,54.3,30.05,East,90,5.9,8.1,66,0.00,SKC,,0.00,WeatherDisplay:10.37,2013-06-19 12:16:00,
2013-06-19 08:21:00,67.1,54.1,30.05,ENE,68,8.3,9.5,63,0.00,SKC,,0.00,WeatherDisplay:10.37,2013-06-19 12:21:00,
2013-06-19 08:26:00,67.3,54.7,30.05,East,90,2.8,5.8,64,0.00,SKC,,0.00,WeatherDisplay:10.37,2013-06-19 12:26:00,
2013-06-19 08:31:00,67.3,53.8,30.05,NE,45,8.4,9.5,62,0.00,SKC,,0.00,WeatherDisplay:10.37,2013-06-19 12:31:00,
2013-06-19 08:36:00,67.8,54.3,30.05,NW,315,6.7,8.1,62,0.00,SKC,,0.00,WeatherDisplay:10.37,2013-06-19 12:36:00,
2013-06-19 08:41:00,68.2,55.1,30.06,ENE,68,5.7,10.4,63,0.00,SKC,,0.00,WeatherDisplay:10.37,2013-06-19 12:41:00,
2013-06-19 08:46:00,67.8,54.7,30.06,NW,315,1.6,5.8,63,0.00,SKC,,0.00,WeatherDisplay:10.37,2013-06-19 12:46:00,
2013-06-19 08:51:00,70.3,55.3,30.06,NNE,22,5.4,6.1,59,0.00,SKC,,0.00,WeatherDisplay:10.37,2013-06-19 12:51:00,
2013-06-19 08:56:00,70.2,55.2,30.06,NNE,22,9.4,10.4,59,0.00,SKC,,0.00,WeatherDisplay:10.37,2013-06-19 12:56:00,
2013-06-19 09:01:00,69.6,54.6,30.06,NE,45,8.3,8.7,59,0.00,SKC,,0.00,WeatherDisplay:10.37,2013-06-19 13:01:00,
2013-06-19 09:06:00,64.8,54.4,30.06,East,90,4.7,9.2,69,0.00,SKC,,0.00,WeatherDisplay:10.37,2013-06-19 13:06:00,
2013-06-19 09:11:00,64.9,54.1,30.06,ENE,68,10.3,10.4,68,0.00,SKC,,0.00,WeatherDisplay:10.37,2013-06-19 13:11:00,
2013-06-19 09:16:00,64.9,54.1,30.07,ENE,68,10.4,10.4,68,0.00,SKC,,0.00,WeatherDisplay:10.37,2013-06-19 13:16:00,
2013-06-19 09:21:00,65.7,55.2,30.07,NE,45,3.9,5.8,69,0.00,SKC,,0.00,WeatherDisplay:10.37,2013-06-19 13:21:00,
2013-06-19 09:27:00,65.7,54.8,30.07,East,90,5.8,9.2,68,0.00,SKC,,0.00,WeatherDisplay:10.37,2013-06-19 13:27:00,
2013-06-19 09:32:00,66.6,55.3,30.07,ENE,68,6.8,10.4,67,0.00,SKC,,0.00,WeatherDisplay:10.37,2013-06-19 13:32:00,
2013-06-19 09:37:00,66.6,55.3,30.07,NNE,22,9.5,9.5,67,0.00,SKC,,0.00,WeatherDisplay:10.37,2013-06-19 13:37:00,
2013-06-19 09:42:00,66.9,55.6,30.07,NNE,22,8.2,9.5,67,0.00,SKC,,0.00,WeatherDisplay:10.37,2013-06-19 13:42:00,
2013-06-19 09:47:00,67.1,56.2,30.07,North,360,4.3,6.1,68,0.00,SKC,,0.00,WeatherDisplay:10.37,2013-06-19 13:47:00,
2013-06-19 09:52:00,66.9,56.0,30.07,ENE,68,2.9,5.8,68,0.00,SKC,,0.00,WeatherDisplay:10.37,2013-06-19 13:52:00,
2013-06-19 09:57:00,67.8,55.6,30.07,ENE,68,6.5,7.0,65,0.00,SKC,,0.00,WeatherDisplay:10.37,2013-06-19 13:57:00,
2013-06-19 10:02:00,68.7,56.9,30.07,ESE,112,4.2,5.3,66,0.00,SKC,,0.00,WeatherDisplay:10.37,2013-06-19 14:02:00,
2013-06-19 10:07:00,68.0,56.6,30.07,NE,45,7.1,9.2,67,0.00,SKC,,0.00,WeatherDisplay:10.37,2013-06-19 14:07:00,
2013-06-19 10:12:00,67.3,56.4,30.07,West,270,4.5,7.0,68,0.00,SKC,,0.00,WeatherDisplay:10.37,2013-06-19 14:12:00,
2013-06-19 10:17:00,68.9,57.9,30.07,ENE,68,5.5,9.2,68,0.00,SKC,,0.00,WeatherDisplay:10.37,2013-06-19 14:17:00,
2013-06-19 10:22:00,69.3,56.6,30.07,NE,45,7.3,9.5,64,0.00,SKC,,0.00,WeatherDisplay:10.37,2013-06-19 14:22:00,
2013-06-19 10:27:00,69.1,56.8,30.07,East,90,8.4,9.2,65,0.00,SKC,,0.00,WeatherDisplay:10.37,2013-06-19 14:27:00,
2013-06-19 10:32:00,68.7,56.0,30.07,East,90,5.7,8.7,64,0.00,SKC,,0.00,WeatherDisplay:10.37,2013-06-19 14:32:00,
2013-06-19 10:37:00,68.7,56.0,30.07,East,90,4.1,5.8,64,0.00,SKC,,0.00,WeatherDisplay:10.37,2013-06-19 14:37:00,
2013-06-19 10:42:00,70.2,57.0,30.08,East,90,4.3,10.4,63,0.00,SKC,,0.00,WeatherDisplay:10.37,2013-06-19 14:42:00,
2013-06-19 10:47:00,70.0,56.8,30.08,ENE,68,3.0,5.8,63,0.00,SKC,,0.00,WeatherDisplay:10.37,2013-06-19 14:47:00,
2013-06-19 10:52:00,69.4,56.3,30.08,SSE,158,6.3,10.4,63,0.00,SKC,,0.00,WeatherDisplay:10.37,2013-06-19 14:52:00,
2013-06-19 10:57:00,70.0,56.8,30.08,NE,45,7.8,8.1,63,0.00,SKC,,0.00,WeatherDisplay:10.37,2013-06-19 14:57:00,
2013-06-19 11:02:00,70.5,56.4,30.08,NNW,338,4.7,11.5,61,0.00,SKC,,0.00,WeatherDisplay:10.37,2013-06-19 15:02:00,
2013-06-19 11:07:00,70.0,55.5,30.08,North,360,4.0,9.2,60,0.00,SKC,,0.00,WeatherDisplay:10.37,2013-06-19 15:07:00,
2013-06-19 11:12:00,71.4,56.3,30.08,ENE,68,6.3,12.7,59,0.00,SKC,,0.00,WeatherDisplay:10.37,2013-06-19 15:12:00,
2013-06-19 11:17:00,70.9,55.9,30.08,NE,45,7.3,11.5,59,0.00,SKC,,0.00,WeatherDisplay:10.37,2013-06-19 15:17:00,
2013-06-19 11:22:00,70.9,55.9,30.08,West,270,7.2,8.7,59,0.00,SKC,,0.00,WeatherDisplay:10.37,2013-06-19 15:22:00,
2013-06-19 11:27:00,71.1,56.0,30.09,East,90,5.5,7.0,59,0.00,SKC,,0.00,WeatherDisplay:10.37,2013-06-19 15:27:00,
2013-06-19 11:32:00,71.6,57.0,30.09,West,270,7.5,9.5,60,0.00,SKC,,0.00,WeatherDisplay:10.37,2013-06-19 15:32:00,
2013-06-19 11:37:00,72.1,55.5,30.09,NE,45,7.6,11.5,56,0.00,SKC,,0.00,WeatherDisplay:10.37,2013-06-19 15:37:00,
2013-06-19 11:42:00,72.0,55.9,30.09,ENE,68,8.2,10.4,57,0.00,SKC,,0.00,WeatherDisplay:10.37,2013-06-19 15:42:00,
2013-06-19 11:47:00,71.6,55.6,30.09,North,360,6.9,9.2,57,0.00,SKC,,0.00,WeatherDisplay:10.37,2013-06-19 15:47:00,
2013-06-19 11:52:00,72.7,56.6,30.09,NE,45,7.9,11.2,57,0.00,SKC,,0.00,WeatherDisplay:10.37,2013-06-19 15:52:00,
2013-06-19 11:57:00,73.2,56.1,30.09,NNE,22,7.5,11.2,55,0.00,SKC,,0.00,WeatherDisplay:10.37,2013-06-19 15:57:00,
2013-06-19 12:02:00,72.7,56.1,30.09,North,360,6.0,10.4,56,0.00,SCT,,0.00,WeatherDisplay:10.37,2013-06-19 16:02:00,
2013-06-19 12:07:00,72.9,56.3,30.09,NE,45,6.2,8.1,56,0.00,SCT,,0.00,WeatherDisplay:10.37,2013-06-19 16:07:00,
2013-06-19 12:12:00,72.0,54.9,30.09,North,360,7.1,9.2,55,0.00,SCT,,0.00,WeatherDisplay:10.37,2013-06-19 16:12:00,
2013-06-19 12:17:00,73.8,57.6,30.09,North,360,6.0,8.7,57,0.00,SCT,,0.00,WeatherDisplay:10.37,2013-06-19 16:17:00,
2013-06-19 12:22:00,73.0,57.8,30.09,WNW,292,4.6,5.8,59,0.00,SCT,,0.00,WeatherDisplay:10.37,2013-06-19 16:22:00,
2013-06-19 12:27:00,73.6,58.4,30.09,ENE,68,6.7,9.5,59,0.00,SCT,,0.00,WeatherDisplay:10.37,2013-06-19 16:27:00,
2013-06-19 12:32:00,73.4,57.2,30.09,ENE,68,8.4,11.5,57,0.00,SCT,,0.00,WeatherDisplay:10.37,2013-06-19 16:32:00,
2013-06-19 12:37:00,74.7,58.5,30.09,East,90,4.3,8.7,57,0.00,SCT,,0.00,WeatherDisplay:10.37,2013-06-19 16:37:00,
2013-06-19 12:42:00,73.0,56.4,30.09,NNE,22,6.9,10.4,56,0.00,SCT,,0.00,WeatherDisplay:10.37,2013-06-19 16:42:00,
2013-06-19 12:47:00,73.6,56.4,30.09,NNW,338,6.3,11.5,55,0.00,SCT,,0.00,WeatherDisplay:10.37,2013-06-19 16:47:00,
2013-06-19 12:52:00,74.1,56.9,30.09,East,90,6.9,7.8,55,0.00,SCT,,0.00,WeatherDisplay:10.37,2013-06-19 16:52:00,
2013-06-19 12:57:00,73.6,55.9,30.09,NE,45,4.0,9.2,54,0.00,SCT,,0.00,WeatherDisplay:10.37,2013-06-19 16:57:00,
2013-06-19 13:02:00,75.4,53.8,30.09,NNE,22,12.8,17.3,47,0.00,SCT,,0.00,WeatherDisplay:10.37,2013-06-19 17:02:00,
2013-06-19 13:07:00,74.7,51.9,30.09,North,360,9.2,10.4,45,0.00,SCT,,0.00,WeatherDisplay:10.37,2013-06-19 17:07:00,
2013-06-19 13:12:00,74.7,54.3,30.09,NNE,22,8.6,11.2,49,0.00,SCT,,0.00,WeatherDisplay:10.37,2013-06-19 17:12:00,
2013-06-19 13:17:00,74.3,55.0,30.09,ENE,68,6.3,9.5,51,0.00,SCT,,0.00,WeatherDisplay:10.37,2013-06-19 17:17:00,
2013-06-19 13:22:00,75.6,55.1,30.09,ENE,68,11.1,16.1,49,0.00,SCT,,0.00,WeatherDisplay:10.37,2013-06-19 17:22:00,
2013-06-19 13:27:00,75.0,53.4,30.09,North,360,6.4,8.1,47,0.00,SCT,,0.00,WeatherDisplay:10.37,2013-06-19 17:27:00,
2013-06-19 13:32:00,74.8,52.0,30.09,NNE,22,8.1,12.9,45,0.00,SKC,,0.00,WeatherDisplay:10.37,2013-06-19 17:32:00,
2013-06-19 13:37:00,73.8,54.5,30.09,NE,45,3.4,5.8,51,0.00,SKC,,0.00,WeatherDisplay:10.37,2013-06-19 17:37:00,
2013-06-19 13:42:00,76.5,54.2,30.08,NE,45,6.4,9.2,46,0.00,SKC,,0.00,WeatherDisplay:10.37,2013-06-19 17:42:00,
2013-06-19 13:47:00,74.7,52.5,30.08,West,270,3.9,6.9,46,0.00,SKC,,0.00,WeatherDisplay:10.37,2013-06-19 17:47:00,
2013-06-19 13:52:00,76.3,53.4,30.08,NE,45,8.6,12.1,45,0.00,SKC,,0.00,WeatherDisplay:10.37,2013-06-19 17:52:00,
2013-06-19 13:57:00,75.2,53.6,30.08,North,360,6.3,8.1,47,0.00,SKC,,0.00,WeatherDisplay:10.37,2013-06-19 17:57:00,
2013-06-19 14:02:00,75.9,53.6,30.08,North,360,5.3,11.5,46,0.00,SKC,,0.00,WeatherDisplay:10.37,2013-06-19 18:02:00,
2013-06-19 14:07:00,76.3,53.4,30.08,East,90,3.4,8.1,45,0.00,SKC,,0.00,WeatherDisplay:10.37,2013-06-19 18:07:00,
2013-06-19 14:12:00,76.6,53.7,30.08,NE,45,7.8,9.2,45,0.00,SKC,,0.00,WeatherDisplay:10.37,2013-06-19 18:12:00,
2013-06-19 14:17:00,76.1,52.6,30.08,NE,45,5.1,8.1,44,0.00,SKC,,0.00,WeatherDisplay:10.37,2013-06-19 18:17:00,
2013-06-19 14:22:00,76.5,53.0,30.08,North,360,8.3,11.5,44,0.00,SKC,,0.00,WeatherDisplay:10.37,2013-06-19 18:22:00,
2013-06-19 14:27:00,76.8,53.8,30.08,ENE,68,7.8,11.5,45,0.00,SKC,,0.00,WeatherDisplay:10.37,2013-06-19 18:27:00,
2013-06-19 14:32:00,77.2,53.0,30.08,SE,135,9.2,10.4,43,0.00,SKC,,0.00,WeatherDisplay:10.37,2013-06-19 18:32:00,
2013-06-19 14:37:00,76.5,52.3,30.08,East,90,6.2,9.2,43,0.00,SKC,,0.00,WeatherDisplay:10.37,2013-06-19 18:37:00,
2013-06-19 14:42:00,76.5,52.3,30.08,West,270,4.7,11.5,43,0.00,SKC,,0.00,WeatherDisplay:10.37,2013-06-19 18:42:00,
2013-06-19 14:47:00,77.4,51.9,30.08,East,90,5.5,12.7,41,0.00,SKC,,0.00,WeatherDisplay:10.37,2013-06-19 18:47:00,
2013-06-19 14:52:00,76.8,50.6,30.08,ENE,68,4.8,5.8,40,0.00,SKC,,0.00,WeatherDisplay:10.37,2013-06-19 18:52:00,
2013-06-19 14:57:00,76.6,51.1,30.08,NE,45,7.2,8.1,41,0.00,SKC,,0.00,WeatherDisplay:10.37,2013-06-19 18:57:00,
2013-06-19 15:02:00,77.0,52.1,30.08,East,90,5.4,6.9,42,0.00,SKC,,0.00,WeatherDisplay:10.37,2013-06-19 19:02:00,
2013-06-19 15:07:00,77.2,52.3,30.07,ENE,68,6.8,9.2,42,0.00,SKC,,0.00,WeatherDisplay:10.37,2013-06-19 19:07:00,
2013-06-19 15:12:00,77.2,53.0,30.07,WSW,248,5.9,6.1,43,0.00,SKC,,0.00,WeatherDisplay:10.37,2013-06-19 19:12:00,
2013-06-19 15:17:00,77.2,52.3,30.08,North,360,6.3,9.2,42,0.00,SKC,,0.00,WeatherDisplay:10.37,2013-06-19 19:17:00,
2013-06-19 15:22:00,76.6,53.7,30.08,West,270,6.8,8.1,45,0.00,SKC,,0.00,WeatherDisplay:10.37,2013-06-19 19:22:00,
2013-06-19 15:27:00,77.7,53.4,30.08,NNW,338,9.2,12.1,43,0.00,SKC,,0.00,WeatherDisplay:10.37,2013-06-19 19:27:00,
2013-06-19 15:32:00,78.3,52.7,30.08,ENE,68,6.8,15.0,41,0.00,SKC,,0.00,WeatherDisplay:10.37,2013-06-19 19:32:00,
2013-06-19 15:37:00,76.6,52.4,30.08,ENE,68,5.9,7.0,43,0.00,SKC,,0.00,WeatherDisplay:10.37,2013-06-19 19:37:00,
2013-06-19 15:42:00,78.4,52.7,30.08,ENE,68,4.3,10.4,41,0.00,SKC,,0.00,WeatherDisplay:10.37,2013-06-19 19:42:00,
2013-06-19 15:47:00,77.5,53.2,30.08,West,270,4.7,7.0,43,0.00,SKC,,0.00,WeatherDisplay:10.37,2013-06-19 19:47:00,
2013-06-19 15:52:00,77.9,53.0,30.08,West,270,6.1,11.5,42,0.00,SKC,,0.00,WeatherDisplay:10.37,2013-06-19 19:52:00,
2013-06-19 15:57:00,77.7,52.8,30.08,East,90,6.0,6.1,42,0.00,SKC,,0.00,WeatherDisplay:10.37,2013-06-19 19:57:00,
2013-06-19 16:02:00,77.7,52.8,30.08,East,90,5.3,5.8,42,0.00,SKC,,0.00,WeatherDisplay:10.37,2013-06-19 20:02:00,
2013-06-19 16:07:00,77.4,51.9,30.07,ENE,68,5.0,9.2,41,0.00,SKC,,0.00,WeatherDisplay:10.37,2013-06-19 20:07:00,
2013-06-19 16:12:00,78.1,51.1,30.07,West,270,5.1,9.2,39,0.00,SKC,,0.00,WeatherDisplay:10.37,2013-06-19 20:12:00,
2013-06-19 16:17:00,77.9,52.3,30.07,North,360,6.2,7.0,41,0.00,SKC,,0.00,WeatherDisplay:10.37,2013-06-19 20:17:00,
2013-06-19 16:22:00,77.4,51.2,30.07,North,360,5.1,9.2,40,0.00,SKC,,0.00,WeatherDisplay:10.37,2013-06-19 20:22:00,
2013-06-19 16:27:00,77.5,51.9,30.07,NNE,22,6.0,9.5,41,0.00,SKC,,0.00,WeatherDisplay:10.37,2013-06-19 20:27:00,
2013-06-19 16:32:00,77.7,50.8,30.07,NE,45,5.3,8.1,39,0.00,SKC,,0.00,WeatherDisplay:10.37,2013-06-19 20:32:00,
2013-06-19 16:37:00,77.9,50.9,30.07,West,270,4.9,5.8,39,0.00,SKC,,0.00,WeatherDisplay:10.37,2013-06-19 20:37:00,
2013-06-19 16:42:00,77.4,50.5,30.07,WSW,248,5.2,6.1,39,0.00,SKC,,0.00,WeatherDisplay:10.37,2013-06-19 20:42:00,
2013-06-19 16:47:00,77.9,50.9,30.07,ENE,68,4.0,5.8,39,0.00,SKC,,0.00,WeatherDisplay:10.37,2013-06-19 20:47:00,
2013-06-19 16:52:00,78.3,49.9,30.07,SE,135,4.9,6.1,37,0.00,SKC,,0.00,WeatherDisplay:10.37,2013-06-19 20:52:00,
2013-06-19 16:57:00,79.0,50.5,30.07,NE,45,3.2,3.6,37,0.00,SKC,,0.00,WeatherDisplay:10.37,2013-06-19 20:57:00,
2013-06-19 17:02:00,78.6,50.9,30.07,West,270,4.5,10.4,38,0.00,SKC,,0.00,WeatherDisplay:10.37,2013-06-19 21:02:00,
2013-06-19 17:07:00,79.3,50.8,30.06,NNW,338,7.0,8.1,37,0.00,SKC,,0.00,WeatherDisplay:10.37,2013-06-19 21:07:00,
2013-06-19 17:12:00,78.4,50.7,30.06,ESE,112,4.7,7.0,38,0.00,SKC,,0.00,WeatherDisplay:10.37,2013-06-19 21:12:00,
2013-06-19 17:17:00,78.4,50.7,30.06,WSW,248,8.5,9.5,38,0.00,SKC,,0.00,WeatherDisplay:10.37,2013-06-19 21:17:00,
2013-06-19 17:22:00,79.7,51.8,30.06,NNE,22,6.9,10.4,38,0.00,SKC,,0.00,WeatherDisplay:10.37,2013-06-19 21:22:00,
2013-06-19 17:27:00,77.7,50.8,30.06,West,270,4.4,5.8,39,0.00,SKC,,0.00,WeatherDisplay:10.37,2013-06-19 21:27:00,
2013-06-19 17:32:00,77.9,49.5,30.06,NNE,22,4.1,5.8,37,0.00,SKC,,0.00,WeatherDisplay:10.37,2013-06-19 21:32:00,
2013-06-19 17:37:00,77.7,50.1,30.06,ESE,112,3.8,5.8,38,0.00,SKC,,0.00,WeatherDisplay:10.37,2013-06-19 21:37:00,
2013-06-19 17:42:00,79.2,49.2,30.06,North,360,6.5,9.2,35,0.00,SKC,,0.00,WeatherDisplay:10.37,2013-06-19 21:42:00,
2013-06-19 17:48:00,81.1,51.6,30.06,WNW,292,3.6,5.8,36,0.00,SKC,,0.00,WeatherDisplay:10.37,2013-06-19 21:48:00,
2013-06-19 17:53:00,79.7,48.8,30.06,West,270,2.2,4.6,34,0.00,SKC,,0.00,WeatherDisplay:10.37,2013-06-19 21:53:00,
2013-06-19 17:58:00,79.7,48.8,30.06,NNW,338,3.3,4.6,34,0.00,SKC,,0.00,WeatherDisplay:10.37,2013-06-19 21:58:00,
2013-06-19 18:03:00,78.6,49.4,30.06,NNE,22,4.0,5.8,36,0.00,SKC,,0.00,WeatherDisplay:10.37,2013-06-19 22:03:00,
2013-06-19 18:08:00,79.0,49.8,30.06,WSW,248,0.8,3.5,36,0.00,SKC,,0.00,WeatherDisplay:10.37,2013-06-19 22:08:00,
2013-06-19 18:13:00,78.4,50.7,30.06,West,270,7.2,9.2,38,0.00,SKC,,0.00,WeatherDisplay:10.37,2013-06-19 22:13:00,
2013-06-19 18:18:00,77.2,48.9,30.06,North,360,3.8,5.8,37,0.00,SKC,,0.00,WeatherDisplay:10.37,2013-06-19 22:18:00,
2013-06-19 18:23:00,76.6,47.6,30.06,North,360,5.9,9.2,36,0.00,SKC,,0.00,WeatherDisplay:10.37,2013-06-19 22:23:00,
2013-06-19 18:28:00,76.8,48.6,30.06,ENE,68,5.1,7.0,37,0.00,SKC,,0.00,WeatherDisplay:10.37,2013-06-19 22:28:00,
2013-06-19 18:33:00,77.0,48.7,30.06,NNW,338,3.8,4.6,37,0.00,SKC,,0.00,WeatherDisplay:10.37,2013-06-19 22:33:00,
2013-06-19 18:38:00,76.5,46.8,30.06,NE,45,4.6,5.8,35,0.00,SKC,,0.00,WeatherDisplay:10.37,2013-06-19 22:38:00,
2013-06-19 18:43:00,76.6,50.5,30.06,WNW,292,0.0,4.6,40,0.00,SKC,,0.00,WeatherDisplay:10.37,2013-06-19 22:43:00,
2013-06-19 18:48:00,76.6,49.1,30.06,NNW,338,4.7,6.9,38,0.00,SKC,,0.00,WeatherDisplay:10.37,2013-06-19 22:48:00,
2013-06-19 18:53:00,76.3,51.5,30.07,NNW,338,3.9,5.8,42,0.00,SKC,,0.00,WeatherDisplay:10.37,2013-06-19 22:53:00,
2013-06-19 18:58:00,75.7,49.7,30.07,NNW,338,2.9,4.6,40,0.00,SKC,,0.00,WeatherDisplay:10.37,2013-06-19 22:58:00,
2013-06-19 19:03:00,75.4,48.7,30.07,WSW,248,5.1,10.4,39,0.00,SKC,,0.00,WeatherDisplay:10.37,2013-06-19 23:03:00,
2013-06-19 19:08:00,75.2,48.5,30.07,NW,315,2.3,4.6,39,0.00,SKC,,0.00,WeatherDisplay:10.37,2013-06-19 23:08:00,
2013-06-19 19:13:00,75.4,50.7,30.07,NE,45,2.1,3.6,42,0.00,SKC,,0.00,WeatherDisplay:10.37,2013-06-19 23:13:00,
2013-06-19 19:18:00,74.8,50.8,30.07,WNW,292,3.5,4.6,43,0.00,SKC,,0.00,WeatherDisplay:10.37,2013-06-19 23:18:00,
2013-06-19 19:23:00,74.3,50.4,30.07,East,90,5.3,5.8,43,0.00,SKC,,0.00,WeatherDisplay:10.37,2013-06-19 23:23:00,
2013-06-19 19:28:00,75.0,50.3,30.08,SW,225,4.4,7.0,42,0.00,SKC,,0.00,WeatherDisplay:10.37,2013-06-19 23:28:00,
2013-06-19 19:33:00,76.8,52.6,30.08,SW,225,2.4,3.6,43,0.00,SKC,,0.00,WeatherDisplay:10.37,2013-06-19 23:33:00,
2013-06-19 19:38:00,78.3,52.7,30.08,NNE,22,2.1,4.6,41,0.00,SKC,,0.00,WeatherDisplay:10.37,2013-06-19 23:38:00,
2013-06-19 19:43:00,78.4,52.1,30.08,West,270,0.0,2.3,40,0.00,SKC,,0.00,WeatherDisplay:10.37,2013-06-19 23:43:00,
2013-06-19 19:48:00,79.0,53.9,30.08,NE,45,0.0,2.3,42,0.00,SKC,,0.00,WeatherDisplay:10.37,2013-06-19 23:48:00,
2013-06-19 19:53:00,78.8,51.7,30.08,West,270,0.0,0.0,39,0.00,SKC,,0.00,WeatherDisplay:10.37,2013-06-19 23:53:00,
2013-06-19 19:58:00,78.1,53.1,30.08,West,270,0.0,0.0,42,0.00,SKC,,0.00,WeatherDisplay:10.37,2013-06-19 23:58:00,
2013-06-19 20:03:00,77.4,52.5,30.08,West,270,0.0,0.0,42,0.00,SKC,,0.00,WeatherDisplay:10.37,2013-06-20 00:03:00,
2013-06-19 20:08:00,76.3,52.8,30.08,West,270,0.0,0.0,44,0.00,SKC,,0.00,WeatherDisplay:10.37,2013-06-20 00:08:00,
2013-06-19 20:13:00,74.8,53.2,30.08,West,270,1.6,3.6,47,0.00,SKC,,0.00,WeatherDisplay:10.37,2013-06-20 00:13:00,
2013-06-19 20:18:00,73.4,53.1,30.09,West,270,0.0,0.0,49,0.00,SKC,,0.00,WeatherDisplay:10.37,2013-06-20 00:18:00,
2013-06-19 20:23:00,71.4,53.4,30.09,West,270,0.0,0.0,53,0.00,SKC,,0.00,WeatherDisplay:10.37,2013-06-20 00:23:00,
2013-06-19 20:28:00,69.8,53.9,30.09,West,270,0.0,0.0,57,0.00,SKC,,0.00,WeatherDisplay:10.37,2013-06-20 00:28:00,
2013-06-19 20:33:00,68.7,55.2,30.09,West,270,0.0,0.0,62,0.00,SKC,,0.00,WeatherDisplay:10.37,2013-06-20 00:33:00,
2013-06-19 20:38:00,67.8,54.3,30.09,West,270,0.0,0.0,62,0.00,SKC,,0.00,WeatherDisplay:10.37,2013-06-20 00:38:00,
2013-06-19 20:43:00,66.9,53.0,30.09,West,270,0.0,0.0,61,0.00,SKC,,0.00,WeatherDisplay:10.37,2013-06-20 00:43:00,
2013-06-19 20:48:00,66.0,52.6,30.09,West,270,0.0,0.0,62,0.00,SKC,,0.00,WeatherDisplay:10.37,2013-06-20 00:48:00,
2013-06-19 20:53:00,64.9,52.4,30.09,West,270,0.0,0.0,64,0.00,SKC,,0.00,WeatherDisplay:10.37,2013-06-20 00:53:00,
2013-06-19 20:58:00,64.6,52.1,30.09,West,270,0.0,0.0,64,0.00,SKC,,0.00,WeatherDisplay:10.37,2013-06-20 00:58:00,
2013-06-19 21:03:00,64.0,52.8,30.09,West,270,0.0,0.0,67,0.00,SKC,,0.00,WeatherDisplay:10.37,2013-06-20 01:03:00,
2013-06-19 21:08:00,64.0,52.8,30.09,West,270,0.0,0.0,67,0.00,SKC,,0.00,WeatherDisplay:10.37,2013-06-20 01:08:00,
2013-06-19 21:13:00,63.7,52.9,30.09,West,270,0.0,0.0,68,0.00,SKC,,0.00,WeatherDisplay:10.37,2013-06-20 01:13:00,
2013-06-19 21:18:00,63.3,52.6,30.10,West,270,0.0,0.0,68,0.00,SKC,,0.00,WeatherDisplay:10.37,2013-06-20 01:18:00,
2013-06-19 21:23:00,62.2,52.3,30.10,West,270,0.0,0.0,70,0.00,SKC,,0.00,WeatherDisplay:10.37,2013-06-20 01:23:00,
2013-06-19 21:28:00,61.7,53.0,30.10,West,270,0.0,0.0,73,0.00,SKC,,0.00,WeatherDisplay:10.37,2013-06-20 01:28:00,
2013-06-19 21:33:00,60.8,52.8,30.10,West,270,0.0,0.0,75,0.00,SKC,,0.00,WeatherDisplay:10.37,2013-06-20 01:33:00,
2013-06-19 21:38:00,61.2,52.5,30.10,West,270,0.0,0.0,73,0.00,SKC,,0.00,WeatherDisplay:10.37,2013-06-20 01:38:00,
2013-06-19 21:43:00,60.8,52.8,30.10,West,270,0.0,0.0,75,0.00,SKC,,0.00,WeatherDisplay:10.37,2013-06-20 01:43:00,
2013-06-19 21:48:00,60.1,52.1,30.10,West,270,0.0,0.0,75,0.00,SKC,,0.00,WeatherDisplay:10.37,2013-06-20 01:48:00,
2013-06-19 21:53:00,60.1,52.5,30.11,West,270,0.0,0.0,76,0.00,SKC,,0.00,WeatherDisplay:10.37,2013-06-20 01:53:00,
2013-06-19 21:58:00,60.1,52.5,30.11,West,270,0.0,0.0,76,0.00,SKC,,0.00,WeatherDisplay:10.37,2013-06-20 01:58:00,
2013-06-19 22:03:00,59.9,52.3,30.11,West,270,0.0,0.0,76,0.00,SKC,,0.00,WeatherDisplay:10.37,2013-06-20 02:03:00,
2013-06-19 22:08:00,59.4,52.5,30.11,West,270,0.0,0.0,78,0.00,SKC,,0.00,WeatherDisplay:10.37,2013-06-20 02:08:00,
2013-06-19 22:13:00,58.8,53.6,30.11,West,270,0.0,0.0,83,0.00,SKC,,0.00,WeatherDisplay:10.37,2013-06-20 02:13:00,
2013-06-19 22:18:00,58.8,53.3,30.12,West,270,0.0,0.0,82,0.00,SKC,,0.00,WeatherDisplay:10.37,2013-06-20 02:18:00,
2013-06-19 22:23:00,58.5,53.4,30.12,West,270,0.0,0.0,83,0.00,SKC,,0.00,WeatherDisplay:10.37,2013-06-20 02:23:00,
2013-06-19 22:28:00,58.3,53.5,30.12,West,270,0.0,0.0,84,0.00,SKC,,0.00,WeatherDisplay:10.37,2013-06-20 02:28:00,
2013-06-19 22:33:00,57.7,53.2,30.12,West,270,0.0,0.0,85,0.00,SKC,,0.00,WeatherDisplay:10.37,2013-06-20 02:33:00,
2013-06-19 22:38:00,57.7,53.5,30.12,West,270,0.0,0.0,86,0.00,SKC,,0.00,WeatherDisplay:10.37,2013-06-20 02:38:00,
2013-06-19 22:43:00,57.6,53.8,30.12,West,270,0.0,0.0,87,0.00,SKC,,0.00,WeatherDisplay:10.37,2013-06-20 02:43:00,
2013-06-19 22:48:00,57.6,53.8,30.12,West,270,0.0,0.0,87,0.00,SKC,,0.00,WeatherDisplay:10.37,2013-06-20 02:48:00,
2013-06-19 22:53:00,57.4,53.6,30.13,West,270,0.0,0.0,87,0.00,SKC,,0.00,WeatherDisplay:10.37,2013-06-20 02:53:00,
2013-06-19 22:58:00,57.4,53.9,30.13,West,270,0.0,0.0,88,0.00,SKC,,0.00,WeatherDisplay:10.37,2013-06-20 02:58:00,
2013-06-19 23:03:00,57.4,53.6,30.13,West,270,0.0,0.0,87,0.00,SKC,,0.00,WeatherDisplay:10.37,2013-06-20 03:03:00,
2013-06-19 23:08:00,56.8,53.6,30.14,West,270,0.0,0.0,89,0.00,SKC,,0.00,WeatherDisplay:10.37,2013-06-20 03:08:00,
2013-06-19 23:13:00,56.8,53.6,30.14,West,270,0.0,0.0,89,0.00,SKC,,0.00,WeatherDisplay:10.37,2013-06-20 03:13:00,
2013-06-19 23:18:00,56.5,53.9,30.14,West,270,0.0,0.0,91,0.00,SKC,,0.00,WeatherDisplay:10.37,2013-06-20 03:18:00,
2013-06-19 23:23:00,56.5,53.9,30.14,West,270,0.0,0.0,91,0.00,SKC,,0.00,WeatherDisplay:10.37,2013-06-20 03:23:00,
2013-06-19 23:28:00,56.1,53.8,30.14,West,270,0.0,0.0,92,0.00,SKC,,0.00,WeatherDisplay:10.37,2013-06-20 03:28:00,
2013-06-19 23:33:00,55.8,53.8,30.14,West,270,0.0,0.0,93,0.00,SKC,,0.00,WeatherDisplay:10.37,2013-06-20 03:33:00,
2013-06-19 23:38:00,55.8,53.8,30.14,West,270,0.0,0.0,93,0.00,SKC,,0.00,WeatherDisplay:10.37,2013-06-20 03:38:00,
2013-06-19 23:43:00,55.6,53.6,30.14,West,270,0.0,0.0,93,0.00,SKC,,0.00,WeatherDisplay:10.37,2013-06-20 03:43:00,
2013-06-19 23:48:00,55.8,53.5,30.14,West,270,0.0,0.0,92,0.00,SKC,,0.00,WeatherDisplay:10.37,2013-06-20 03:48:00,
2013-06-19 23:54:00,55.2,53.2,30.14,West,270,0.0,0.0,93,0.00,SKC,,0.00,WeatherDisplay:10.37,2013-06-20 03:54:00,
2013-06-19 23:59:00,55.4,53.4,30.14,West,270,0.0,0.0,93,0.00,SKC,,0.00,WeatherDisplay:10.37,2013-06-20 03:59:00,